Starlink 11099

operational
NORAD ID: 59716 Int'l Des: 2024-088 Owner: SPXS Country: US Constellation: starlink
LEOCIRCULAR

Über Starlink 11099

Beschreibung wird geladen...

Live-Position

3D-Globus wird geladen...

Nächste Überflüge

Höhenverlauf

Altitude vs Time

uPlot chart will show altitude changes over time

Zweizeiliger Elementsatz

1 59716U 24088J 25258.73240893 .00000683 00000-0 10484-4 0 9996
2 59716 53.1590 108.7157 0000644 84.7734 275.3358 15.69720767 78793
Epoch: 15. Sept. 2025 • Age: 16 hours

Aktueller Status

Höhe 359.9 km
Geschwindigkeit 7.70 km/s
Subsatellitenpunkt 18.71°N, 132.41°E
Startdatum 10. Mai 2024
Alter 1.3 years
Typ internet

Technische Details

Klassifizierung Payload
Masse 960.00 kg
Trockenmasse 910.00 kg
Gesamtmasse 960.00 kg
Länge 0.30 m
Durchmesser 4.10 m
Spannweite 29.00 m
Form Box + pan
Hersteller SPXS
Bus-Typ Starlink V2MD
Phasenstatus In Orbit
Besitzer/Staat SPXS/US

Große Konstellationen

Loading constellations...